Погода в Коршеве

Украина / Ивано-Франковская область     48°40′23″N   25°01′15″E
В апреле 2022 года жителям России запретили посещать сайт meteo.paraplan.net по решению Генеральной прокуратуры. Аудитория сайта уменьшилась в 10 раз. Владельцы сайта не видят смысла в поддержке погодного сервера в таких условиях. Сайт будет закрыт в октябре.
темп.,
°C
ветер,
м/с
пор.,
м/с
влажн.,
%
обл.,
%
осадки,
мм/ч
давл.,
гПа
погр.,
м
30 сентября, пт
пт3000:00+10сз239719 0.0 100962
03:00+10сз229612 0.0 101018
06:00+10ссз119452 0.0 101110
09:00+12вюв0088100 0.0 101278
12:00+17юв4566100 0.0 1012543
15:00+19ююв3767100 0.1 1012525
18:00+18ююв2372100 0.4 101238
21:00+15ю347765 0.4 101454
1 октября, сб
сб100:00+14ююз357932 0.0 101472
03:00+12ссз118511 0.0 101610
06:00+11ссз1190100 0.0 101710
09:00+12всв1187100 0.0 101724
12:00+15в118098 0.0 101646
15:00+22сз1555100 0.3 10131038
18:00+18св1274100 0.1 101233
21:00+16ю1180100 0.8 101113
2 октября, вс
вс200:00+14з1296100 2.3 101144
03:00+14зюз2295100 4.6 101050
06:00+13сз61292100 0.6 1011799
09:00+10сз61290100 2.6 1012702
12:00+13сз7127660 0.1 10131149
15:00+13зсз8137473 0.3 10131259
18:00+12сз8147781 0.5 10141084
21:00+11зсз6138064 0.9 1015737
3 октября, пн
пн300:00+10зсз7148487 0.3 1015626
03:00+10зсз71376100 0.4 1015860
06:00+10зсз6127780 0.1 1015708
09:00+10з6117992 0.4 1016745
12:00+12зсз711749 0.6 10161184
15:00+11сз7128012 1.9 10171078
18:00+11сз61177100 0.1 10171004
21:00+10зсз5127997 0.2 1018725
4 октября, вт
вт400:00+10зсз41174100 0.0 1017571
03:00+11з31071100 0.1 1016469
06:00+11з51167100 0.1 1016782
09:00+11зсз71266100 0.2 10161223
12:00+11зсз6117592 0.5 10171193
15:00+14зсз8106080 0.9 10161396
18:00+11сз6117698 0.8 1017625
21:00+9зсз5128785 1.6 1020474